Torna al catalogo

FENGYUN 1C DEB

AttivoSSO
NORAD 31814·DEBRIS·🇨🇳 China

Lanciato May 10, 1999 da Taiyuan Satellite Launch Center

Loading…

Prossimi Passaggi (prossime 24 ore)

TLE

AggiornatoSource: Space-Track

Epoca: Sep 13, 2026, 09:48 UTC

1 31814U 99025CHC 26256.40875427  .00000382  00000-0  42886-3 0  9994
2 31814  99.5412 307.9367 0228843 229.8977 128.1910 13.66731280655516

Traccia FENGYUN 1C DEB in tempo reale con AllMySat

Download on the App Store